Eastover, SC

10:36 AM EST on November 12, 2019 (GMT -0500)
McEntire Angs

Weather History for KMMT - October, 2019

Change the Weather History Date:

Monday, October 21, 2019

  Actual Average Record
Temperature  
Mean Temperature 67 °F -  
Max Temperature 80 °F 71 °F 86 °F (2005)
Min Temperature 56 °F 49 °F 35 °F (2008)
Cooling Degree Days 2    
Growing Degree Days 17 (Base 50)    
Moisture  
Dew Point 60 °F    
Average Humidity 86    
Maximum Humidity 100    
Minimum Humidity 55    
Precipitation  
Precipitation 0.00 in - - ()
Sea Level Pressure  
Sea Level Pressure 30.03 in    
Wind  
Wind Speed 3 mph ()    
Max Wind Speed 10 mph    
Max Gust Speed -    
Visibility 8.0 miles    
Events Fog    
Averages and records for this station are not official NWS values.
T = Trace of Precipitation, MM = Missing Value Source: Averaged Metar Reports

Daily Weather History Graph

Daily Weather History Graph

Search for Another Location

Airport or City:

Astronomy

Oct. 21, 2019 Rise Set
Actual Time 7:32 AM EDT 6:42 PM EDT
Civil Twilight 7:07 AM EDT 7:07 PM EDT
Nautical Twilight 6:38 AM EDT 7:36 PM EDT
Astronomical Twilight 6:09 AM EDT 8:05 PM EDT
Moon 12:01 AM EDT (10/21) 2:40 PM EDT (10/21)
Length of Visible Light 12h 00m
Length of Day
11h 09m
Waning Gibbous, 48% of the Moon is Illuminated
Oct 21
Waning Gibbous
Oct 27
New
Nov 4
First Quarter
Nov 12
Full
Nov 19
Last Quarter

Hourly Weather History & Observations

Time (EDT) Temp. Dew Point Humidity Pressure Visibility Wind Dir Wind Speed Gust Speed Precip Events Conditions
12:56 AM 56.7 °F 56.7 °F 100% 29.98 in 10.0 mi Calm Calm - N/A   Clear
1:56 AM 56.7 °F 56.7 °F 100% 30.00 in 6.0 mi Calm Calm - N/A   Clear
2:56 AM 56.7 °F 56.7 °F 100% 30.01 in 7.0 mi ENE 3.5 mph - N/A   Clear
3:41 AM 57.2 °F 57.2 °F 100% 30.00 in 2.2 mi Calm Calm - N/A   Clear
3:56 AM 57.4 °F 57.4 °F 100% 30.00 in 2.8 mi Calm Calm - N/A   Clear
4:11 AM 57.2 °F 57.2 °F 100% 30.00 in 5.0 mi ENE 3.5 mph - N/A   Clear
4:41 AM 57.2 °F 57.2 °F 100% 30.01 in 3.0 mi East 3.5 mph - N/A   Clear
4:56 AM 57.4 °F 57.4 °F 100% 30.01 in 3.0 mi Calm Calm - N/A   Clear
5:11 AM 57.2 °F 57.2 °F 100% 30.02 in 0.9 mi Calm Calm - N/A   Clear
5:26 AM 57.2 °F 57.2 °F 100% 30.02 in 2.2 mi East 3.5 mph - N/A   Clear
5:41 AM 57.2 °F 57.2 °F 100% 30.02 in 7.0 mi East 5.8 mph - N/A   Clear
5:56 AM 59.0 °F 59.0 °F 100% 30.02 in 10.0 mi East 5.8 mph - N/A   Clear
6:56 AM 58.6 °F 58.6 °F 100% 30.03 in 10.0 mi East 3.5 mph - N/A   Scattered Clouds
7:56 AM 58.1 °F 58.1 °F 100% 30.05 in 10.0 mi Calm Calm - N/A Fog Shallow Fog
8:56 AM 61.9 °F 61.9 °F 100% 30.07 in 10.0 mi East 3.5 mph - N/A   Scattered Clouds
9:56 AM 66.7 °F 60.6 °F 81% 30.08 in 10.0 mi ESE 6.9 mph - N/A   Scattered Clouds
10:56 AM 70.7 °F 60.4 °F 70% 30.08 in 10.0 mi ESE 5.8 mph - N/A   Mostly Cloudy
11:56 AM 74.1 °F 60.6 °F 63% 30.08 in 10.0 mi SE 6.9 mph - N/A   Mostly Cloudy
12:56 PM 77.9 °F 61.9 °F 58% 30.07 in 10.0 mi SSE 9.2 mph - N/A   Mostly Cloudy
1:56 PM 78.4 °F 61.3 °F 56% 30.04 in 10.0 mi SE 9.2 mph - N/A   Mostly Cloudy
2:56 PM 78.8 °F 61.2 °F 55% 30.02 in 10.0 mi SSE 10.4 mph - N/A   Mostly Cloudy
3:56 PM 77.7 °F 61.2 °F 57% 30.02 in 10.0 mi ESE 6.9 mph - N/A   Mostly Cloudy
4:56 PM 78.1 °F 61.5 °F 57% 30.02 in 10.0 mi ESE 9.2 mph - N/A   Mostly Cloudy
5:56 PM 76.1 °F 63.0 °F 64% 30.01 in 10.0 mi SE 5.8 mph - N/A   Mostly Cloudy
6:56 PM 70.7 °F 63.9 °F 79% 30.01 in 10.0 mi ESE 4.6 mph - N/A   Mostly Cloudy
7:56 PM 69.4 °F 64.4 °F 84% 30.02 in 10.0 mi ESE 8.1 mph - N/A   Mostly Cloudy
8:56 PM 68.7 °F 64.6 °F 87% 30.03 in 10.0 mi ESE 5.8 mph - N/A   Mostly Cloudy
9:56 PM 67.6 °F 64.9 °F 91% 30.03 in 10.0 mi SE 6.9 mph - N/A   Mostly Cloudy
10:56 PM 66.7 °F 64.9 °F 94% 30.04 in 10.0 mi ESE 3.5 mph - N/A   Mostly Cloudy
11:56 PM 66.7 °F 66.2 °F 98% 30.04 in 10.0 mi East 5.8 mph - N/A   Overcast